SKY MUSTER 2 (NBN1B)

Last updated on Wed Jul 16 2025 00:02:48 GMT+0000 (Coordinated Universal Time)

1 41794U 16060B 25195.76736058 -.00000236 00000+0 00000+0 0 9992 2 41794 0.0149 357.0719 0001777 111.2165 245.6321 1.00273639 32135
UTC large
Height (km)
Speed (km/s)
/
Latitude / Longitude
Inclination (degrees)
Orbital Period (minutes)
Azimuth
Elevation
Range (km)
Doppler Factor

Next 0 passes for location: London (51.5072 / 0.1276)

Sorry there are no passes over London.